Year,Crop,GS,MO,Date,DoY,n_obs,SRin_avg,SR_se,PCPN_tot,SWC_avg,SWC_se,Tair_avg,Tair_se,Tsoil_avg,Tsoil_se,VPD_avg,VPD_se,PAR_avg,PAR_se,NEE_avg,NEE_se,LE_avg,LE_se,NEE_tot,NEE_tot_se,ET_tot,ET_tot_se
2016,SpringWheat,0,1,2016-01-01,1,96,80.55881,13.27533974,0,16.03229167,0.233823213,-4.445752083,0.130050614,-1.107898438,0.063815419,1.174520833,0.027170196,165.6016795,27.33044419,0.474068434,0.038413007,10.40729167,0.974586332,0.491514152,0.039826606,0.357481477,0.033476198
2016,SpringWheat,0,1,2016-01-02,2,96,81.62303583,13.39802047,0.1,15.98732639,0.228491795,-4.23671875,0.185435345,-1.122611458,0.066309505,1.465560417,0.040417989,167.1451597,27.4993438,0.406299719,0.020701383,5.685416667,0.697078772,0.421251548,0.021463193,0.195304325,0.023945914
2016,SpringWheat,0,1,2016-01-03,3,96,95.5181576,15.42836007,0.1,15.71319445,0.229588914,-10.57971146,0.237920516,-1.642683333,0.095262162,0.302669792,0.020085667,181.3363359,29.45761847,0.880212417,0.082677758,-0.373958333,0.45134119,0.912604234,0.0857203,-0.012767688,0.015409694
2016,SpringWheat,0,1,2016-01-04,4,96,89.6999525,15.06128019,0,15.42795139,0.224979625,-9.153846875,0.296612064,-1.947930208,0.097835163,0.273794792,0.018487624,174.9217857,29.30170985,0.712701656,0.057788334,-0.094791667,0.409332924,0.738929077,0.059914944,-0.003241263,0.013996544
2016,SpringWheat,0,1,2016-01-05,5,96,89.63194792,14.71927411,0,15.35503472,0.222201587,-8.559870833,0.238638809,-1.9241125,0.095078511,0.384060417,0.031776893,176.2134365,29.35369368,0.620927802,0.045869037,0.632291667,0.512466291,0.643777945,0.047557018,0.021630235,0.017531096
2016,SpringWheat,0,1,2016-01-06,6,96,26.60268406,4.500495417,0,15.29791667,0.218351698,-9.03273125,0.259001865,-2.060615625,0.084601425,0.091872083,0.004573489,63.36417347,11.01382336,0.611873193,0.055853,1.39375,0.272600426,0.634390126,0.05790839,0.04766503,0.009322696
2016,SpringWheat,0,1,2016-01-07,7,96,28.18187656,4.74975995,0,15.49392361,0.21542663,-5.99795625,0.036168787,-1.433659375,0.058429922,0.059864167,0.003943698,67.96168935,11.65320556,0.458687563,0.015723741,3.41875,0.120918565,0.475567265,0.016302375,0.117248448,0.004146988
2016,SpringWheat,0,1,2016-01-08,8,96,56.01431396,11.57163367,0,15.46944445,0.217953984,-10.72805938,0.360971837,-1.531927083,0.075778668,0.15668925,0.009584641,115.7586942,22.51004431,0.490206698,0.070494793,1.917708333,0.379949774,0.508246305,0.073089001,0.065456169,0.012968634
2016,SpringWheat,0,1,2016-01-09,9,96,75.9305926,13.11429717,0,14.88854167,0.220914047,-19.21458333,0.242325082,-2.794367708,0.129519584,0.300895833,0.011050993,153.9004102,26.53052375,0.25951601,0.034468982,0.864583333,0.197711574,0.269066199,0.035737441,0.029273776,0.006694282
2016,SpringWheat,0,1,2016-01-10,10,96,73.99487781,12.30166968,0,14.05833333,0.220574575,-20.71458333,0.487490394,-4.206535417,0.160346147,0.163572917,0.002307442,144.6145651,23.91742184,0.204587656,0.045623291,1.188541667,0.222110441,0.212116482,0.047302228,0.040197744,0.007512011
2016,SpringWheat,0,1,2016-01-11,11,96,47.24239594,8.888312113,0,14.13055556,0.211706417,-11.10556354,0.34966027,-3.288548958,0.115686947,0.36196875,0.017097447,101.4994879,18.80929415,0.337329362,0.037005015,3.445833333,0.585596331,0.349743083,0.0383668,0.117594854,0.019984459
2016,SpringWheat,0,1,2016-01-12,12,96,74.3100049,12.10133251,0,14.00607639,0.212289501,-14.94559583,0.375983439,-3.666361458,0.131945075,0.260310417,0.012524491,155.5110216,25.43413398,0.267609207,0.035694889,1.783333333,0.245202506,0.277457226,0.03700846,0.060638722,0.008337626
2016,SpringWheat,0,1,2016-01-13,13,96,68.95085021,11.59782933,0.1,14.10451389,0.20721461,-5.032183333,0.46529941,-3.226608333,0.114706474,0.595214583,0.044792595,141.2127253,23.86794423,0.454011561,0.092668609,4.085416667,0.583036853,0.470719187,0.096078814,0.14027511,0.020018903
2016,SpringWheat,0,1,2016-01-14,14,96,38.41087573,6.042959874,2.216,14.58524306,0.20192179,-5.473201042,0.399528715,-1.920555208,0.062913156,0.215956771,0.009288922,85.47984108,13.58671873,0.007965178,0.103096221,4.835416667,0.690799466,0.008258297,0.106890161,0.165892319,0.023699783
2016,SpringWheat,0,1,2016-01-15,15,96,42.95952656,7.381715279,0,14.55902778,0.2053651,-10.46682187,0.288115692,-2.198597917,0.071090922,0.27246875,0.012509128,94.91582098,16.28846714,0.261800593,0.048983512,2.961458333,0.24369852,0.271434855,0.050786105,0.101113152,0.008320605
2016,SpringWheat,0,1,2016-01-16,16,96,96.7987476,15.81849082,0,14.128125,0.215155877,-21.93020833,0.201807185,-3.474755208,0.142747998,0.24325,0.004813404,195.0160029,31.93336573,0.224739369,0.02491488,1.319791667,0.243258309,0.233009778,0.025831747,0.044571528,0.008215232
2016,SpringWheat,0,1,2016-01-17,17,96,75.21912969,12.38989059,0,13.45138889,0.208633069,-20.53229167,0.30531295,-5.008865625,0.156893999,0.29025,0.008504024,155.2577605,25.59769302,0.164133141,0.030248206,1.751041667,0.207343234,0.170173241,0.03136134,0.059224796,0.007012889
2016,SpringWheat,0,1,2016-01-18,18,96,61.78817656,9.565376623,0,13.06336806,0.205766145,-19.96145833,0.402637603,-5.736761458,0.168294778,0.188760417,0.004423342,133.6211454,20.88076121,0.039201276,0.049761233,1.886458333,0.191064767,0.040643883,0.051592447,0.063847768,0.006466646
2016,SpringWheat,0,1,2016-01-19,19,96,55.97830615,9.015116931,0,13.25451389,0.197315141,-9.983457292,0.344772442,-4.565441667,0.118159184,0.155590698,0.009901054,122.5018105,19.79777383,0.181629158,0.039779881,2.33125,0.155705191,0.188313111,0.04124378,0.079655119,0.0053202
2016,SpringWheat,0,1,2016-01-20,20,96,49.36641729,7.921809592,0,13.56805556,0.195342122,-9.593569792,0.084812669,-3.471425,0.078563612,0.104315625,0.003575887,117.4933138,19.2895256,0.321753927,0.052213561,1.441666667,0.270876852,0.333594472,0.05413502,0.049270596,0.009257524
2016,SpringWheat,0,1,2016-01-21,21,96,35.82931104,6.201471103,0,13.73663195,0.192967809,-8.153021875,0.106468435,-3.0293125,0.071977758,0.0871125,0.004420979,97.42994833,18.13901857,0.370806639,0.050322626,0.65,0.252873833,0.384452323,0.052174499,0.022244228,0.00865382
2016,SpringWheat,0,1,2016-01-22,22,96,44.01814458,7.201827501,0,13.7578125,0.192941974,-8.082305208,0.379910285,-3.144109375,0.077117859,0.083919667,0.005936512,105.322693,17.29540615,0.187753834,0.049987255,2.140625,0.243059709,0.194663175,0.051826786,0.073277313,0.008320356
2016,SpringWheat,0,1,2016-01-23,23,96,101.1771369,16.24936992,0.354,13.98038194,0.185623324,-2.010084375,0.498199253,-2.398701042,0.073247869,1.019213542,0.112674825,208.6677652,33.50911407,0.529544489,0.038139093,4.153125,0.58055092,0.549031726,0.039542612,0.142996882,0.019989037
2016,SpringWheat,0,1,2016-01-24,24,96,32.6684026,5.018754455,0,14.32100694,0.182228737,-4.2418125,0.102764773,-1.74670625,0.024243586,0.19698724,0.016888852,74.8237688,11.69757153,0.122797786,0.039680989,2.84375,0.185403853,0.127316744,0.041141249,0.097686196,0.006368843
2016,SpringWheat,0,1,2016-01-25,25,96,34.15721573,5.379480009,0,14.34583333,0.1851263,-4.531241667,0.088033876,-1.829021875,0.028924602,0.353076354,0.022817178,77.69039044,12.36148361,0.081337014,0.039980745,3.842708333,0.211084007,0.084330216,0.041452037,0.131980846,0.007249847
2016,SpringWheat,0,1,2016-01-26,26,96,72.42596313,11.44525034,0,14.31267361,0.186106542,-7.047370833,0.147496869,-1.873521875,0.045547831,0.337311458,0.014540497,153.1565922,24.24195988,0.40958063,0.05534545,1.526041667,0.500265817,0.424653197,0.057382163,0.052278364,0.017137853
2016,SpringWheat,0,1,2016-01-27,27,96,106.5903753,16.70533953,0,15.07135417,0.216726362,1.585179167,0.396724415,-1.402128125,0.100564647,1.764603125,0.082885382,218.5419066,34.30747283,0.607038729,0.022491109,11.7625,0.898517602,0.629377754,0.023318782,0.40645964,0.031048769
2016,SpringWheat,0,1,2016-01-28,28,96,95.04541375,15.3424246,0,16.58836806,0.229125743,0.073490208,0.195429644,-0.261773115,0.03178199,0.935448958,0.051571715,196.8454358,31.92770799,0.445992573,0.044214371,6.451041667,0.651077034,0.4624051,0.04584146,0.222549556,0.022461009
2016,SpringWheat,0,1,2016-01-29,29,96,85.0847824,14.42161805,0,18.8828125,0.253583173,3.237665729,0.283622189,0.042268854,0.032208253,1.868207292,0.122136821,175.4428027,29.6959865,0.711285417,0.037412719,13.5875,1.981640098,0.73746072,0.038789507,0.470179655,0.068572354
2016,SpringWheat,0,1,2016-01-30,30,96,51.42937094,8.97669716,0,20.64982639,0.181901723,1.042958333,0.222518914,0.145966875,0.026912577,1.170813542,0.091890024,106.8769632,18.45666533,0.539827,0.049813882,9.080208333,1.188412272,0.559692634,0.051647032,0.31353675,0.041035504
2016,SpringWheat,0,1,2016-01-31,31,96,111.2507994,17.29031666,0,19.30364583,0.23992557,-1.331054167,0.292992597,0.009682708,0.045068491,0.708394792,0.071858776,216.8283128,34.03981831,0.074706688,0.068521845,13.459375,1.754056438,0.077455894,0.071043448,0.463670385,0.060426582
2016,SpringWheat,0,2,2016-02-01,32,96,107.4141795,16.43373188,0,18.00208333,0.259414505,-2.482284375,0.367595062,-0.25094325,0.066122831,0.858871875,0.089385333,204.0514411,31.43966576,0.070268865,0.073178726,10.38541667,1.295742843,0.072854759,0.075871703,0.35740605,0.044591984
2016,SpringWheat,0,2,2016-02-02,33,96,58.00796667,9.870789425,0,17.94027778,0.258508909,-3.79153125,0.22785209,-0.136425417,0.034666616,0.815465625,0.040672687,118.7339203,20.14547106,0.158439466,0.050045972,7.989583333,0.856579898,0.164270038,0.051887664,0.274546856,0.029434741
2016,SpringWheat,0,2,2016-02-03,34,96,72.32708177,10.99815347,0,15.66354167,0.203347251,-6.51255625,0.439925139,-1.527603125,0.104877089,0.610386458,0.054487765,144.574284,22.04218553,0.084043717,0.078473369,8.059375,1.113720825,0.792795265,0.081361189,0.276294065,0.038180933
2016,SpringWheat,0,2,2016-02-04,35,96,117.6073066,18.17578421,0,15.50503472,0.198398363,-4.312701042,0.342383345,-1.683669792,0.103365263,1.416122917,0.12659602,237.222214,36.74274592,0.009647968,0.077066377,12.84583333,1.440087806,0.010003013,0.079902419,0.441295202,0.049471593
2016,SpringWheat,0,2,2016-02-05,36,96,119.3886782,18.33331115,0.2,16.03159722,0.207372122,-1.737816667,0.236232806,-1.044882396,0.075393398,1.212985774,0.109754156,241.6226189,37.15086534,0.125415333,0.050116466,12.51770833,1.663121006,0.130030618,0.051960752,0.431064935,0.057271917
2016,SpringWheat,0,2,2016-02-06,37,96,33.42311365,5.142090464,0,16.45208333,0.229651434,3.494827083,0.442533362,-0.856389271,0.084367436,3.524609375,0.222115279,70.45042771,10.85011398,0.390500535,0.029973397,14.51145833,0.959726146,0.404870955,0.031076418,0.502352108,0.033223432
2016,SpringWheat,0,2,2016-02-07,38,96,54.49918521,8.537289639,0.5,17.16753472,0.241586291,-0.317669167,0.144241454,-0.371223958,0.03554389,1.961207292,0.079322685,110.4990407,17.19837809,0.132201367,0.082409193,15.71458333,1.16689814,0.137066378,0.085441851,0.541847819,0.040235315
2016,SpringWheat,0,2,2016-02-08,39,96,109.5374903,16.1417459,0,15.73958333,0.179657333,-3.152770833,0.216892932,-1.606259375,0.085929664,1.55505625,0.077102988,219.3648057,32.41102711,0.265239015,0.066101714,7.201041667,0.639345016,0.274999811,0.068534257,0.247634243,0.021986225
2016,SpringWheat,0,2,2016-02-09,40,96,83.44833094,13.2859603,0,15.90190972,0.191884549,-2.575541667,0.338575095,-1.567427083,0.102724441,2.117659375,0.103111837,170.6135869,27.1260984,0.014608464,0.047445164,8.386458333,0.515755322,0.015146055,0.049191146,0.288597923,0.017748364
2016,SpringWheat,0,2,2016-02-10,41,96,57.76920833,8.947275179,0,15.97083333,0.185678613,-6.255778125,0.204988999,-1.367941667,0.068295114,0.591935417,0.026904235,118.6153494,18.3025189,0.055010899,0.083910142,4.565625,0.352512374,0.719471195,0.086998035,0.156515757,0.012084598
2016,SpringWheat,0,2,2016-02-11,42,96,67.85743948,10.15516555,0,15.16440972,0.151850914,-8.119495833,0.162608808,-2.538501042,0.073532124,0.278770833,0.011360408,143.9366523,21.61071578,0.095413334,0.100864467,4.1625,0.350232536,0.630870339,0.104576279,0.142467584,0.011987215
2016,SpringWheat,0,2,2016-02-12,43,96,135.9477371,20.03166703,0,15.15729167,0.156910119,-13.74664375,0.311518213,-2.583651042,0.06584062,0.43034375,0.020814852,273.4625562,40.44860945,0.135815769,0.118648504,5.28125,0.569697736,0.623979525,0.123014769,0.179752602,0.01939023
2016,SpringWheat,0,2,2016-02-13,44,96,50.90107604,8.89330718,0,14.67239583,0.150911547,-12.60055729,0.261748707,-3.563854167,0.037433513,0.35825,0.012153469,108.4003144,18.82762324,0.176218204,0.093304595,6.564583333,0.418156929,0.554140782,0.096738204,0.22374543,0.014252344
2016,SpringWheat,0,2,2016-02-14,45,96,96.92006146,15.33908015,2.47,15.20885417,0.160413952,-1.821178854,0.37987986,-2.089647917,0.086797611,0.577826948,0.067792709,202.8449999,31.87685428,0.216620639,0.070467328,8.588541667,0.796633363,0.224592279,0.073060525,0.29578147,0.02743532
2016,SpringWheat,0,2,2016-02-15,46,96,69.20977906,10.84208861,0.554,15.74253472,0.166436037,-0.216934375,0.268762493,-1.471377083,0.081008518,0.81413226,0.083257245,144.4084698,22.57644327,0.331653662,0.052852018,12.446875,1.975247016,0.343858516,0.054796973,0.429297211,0.068126982
2016,SpringWheat,0,2,2016-02-16,47,96,58.17910615,10.13625082,0.908,17.09236111,0.153735551,0.107579031,0.073652076,-0.368168958,0.030403632,0.133890276,0.024311068,119.5934522,20.61709924,0.189011495,0.081296667,10.42708333,0.730310976,0.195967118,0.084288384,0.359720433,0.025194752
2016,SpringWheat,0,2,2016-02-17,48,96,34.8002224,5.151461142,0.1,17.86857639,0.15223939,-1.374997917,0.067689411,-0.165585104,0.016707666,2.75E-07,1.91E-07,75.06027628,11.08222234,0.306648625,0.135604316,7.764583333,0.427638813,0.83095942,0.140594555,0.267480146,0.01473162
2016,SpringWheat,0,2,2016-02-18,49,96,43.12798313,6.109324363,0,18.31423611,0.159157401,0.52166875,0.132645565,-0.110097083,0.018265284,0.051491198,0.011602394,91.16344045,12.92184888,0.424285755,0.074785016,11.83020833,0.538931936,0.439899471,0.077537104,0.408316715,0.018601102
2016,SpringWheat,0,2,2016-02-19,50,96,137.9051244,21.34015864,0.354,22.92274306,0.507557475,5.077616667,0.359432453,0.115908542,0.032447421,2.738285763,0.258027947,282.4054673,43.7128201,1.139088104,0.113778804,64.68020833,7.267513122,1.181006546,0.117965864,2.242264945,0.251942446
2016,SpringWheat,0,2,2016-02-20,51,96,120.8932931,18.84757017,0,29.30677083,0.370616155,1.945860417,0.289840988,0.27193625,0.046507913,1.950103125,0.153938559,247.8108759,38.69743941,0.40772975,0.052156275,25.45416667,2.917704546,0.422734205,0.054075626,0.879722689,0.100838928
2016,SpringWheat,0,2,2016-02-21,52,96,83.77416458,12.58512359,0.1,30.70746528,0.175043135,-3.168147917,0.264267277,0.239184688,0.030883317,0.493542397,0.0528517,171.1341301,25.55711932,0.246010539,0.037002248,14.509375,1.54800528,0.255063727,0.038363931,0.498909422,0.053228648
2016,SpringWheat,0,2,2016-02-22,53,96,140.2439955,20.16195326,0,26.57239583,0.197725836,0.170553125,0.38642203,0.193146458,0.040967898,1.005226636,0.104333726,283.7218178,41.21301109,0.345344115,0.04769573,25.24583333,3.231239346,0.358052778,0.049450933,0.871113138,0.111494638
2016,SpringWheat,0,2,2016-02-23,54,96,146.2476545,21.44815333,0,25.43211806,0.144760937,-0.185092708,0.334149787,0.289373958,0.037424447,1.627170833,0.140562855,297.4960422,43.70513121,0.436191333,0.042991265,26.12395833,3.133894271,0.452243174,0.044573343,0.900914089,0.108075869
2016,SpringWheat,0,2,2016-02-24,55,96,68.03925635,11.21033543,0,21.78715278,0.129007986,-1.933266667,0.206114651,0.111505625,0.01965674,0.955248958,0.067650988,138.5608364,22.63329217,0.311625698,0.034821356,18.85416667,1.882037621,0.323093524,0.036102782,0.649173383,0.064800993
2016,SpringWheat,0,2,2016-02-25,56,96,137.6583478,20.82017833,0,18.759375,0.065538152,-1.8816875,0.243330028,0.040544063,0.039067414,1.9716625,0.131263619,279.5877118,42.30250026,0.221490021,0.043442902,20.15625,1.948118082,0.229640854,0.045041601,0.694042003,0.067079728
2016,SpringWheat,0,2,2016-02-26,57,96,154.5530324,21.13896589,0,17.8546875,0.109372463,2.805252083,0.701350958,0.009720625,0.066173762,4.468538542,0.363512774,313.941312,43.05748203,0.467352323,0.032382246,23.74375,2.626555017,0.484550888,0.033573913,0.821372082,0.09086092
2016,SpringWheat,0,2,2016-02-27,58,96,132.2297429,19.90524167,0,20.15555556,0.261219105,7.95183125,0.715076367,0.333170833,0.07120149,7.0709375,0.533865675,272.669477,41.05463312,0.663831552,0.035171817,22.471875,2.600448976,0.688260553,0.036466139,0.781231537,0.090404239
2016,SpringWheat,0,2,2016-02-28,59,96,143.9838858,21.69966272,0.2,24.89756945,0.128355304,2.730258333,0.345258655,0.531647917,0.063468452,2.560521875,0.234632713,294.1582296,44.30790083,0.540374583,0.0443879,20.30833333,2.239416956,0.560260368,0.046021374,0.702450029,0.077459754
2016,SpringWheat,0,2,2016-02-29,60,96,51.0554325,7.389795878,0,20.58506945,0.354549198,-10.83718021,0.421342109,-0.080883333,0.037772672,0.911919792,0.041674705,106.8173018,15.44579261,0.300666161,0.053442954,11.93333333,0.640221088,0.490220628,0.055409654,0.407213199,0.021846911
2016,SpringWheat,0,3,2016-03-01,61,96,117.4937265,16.18116299,0,14.340625,0.069705859,-7.178125,0.518005903,-0.715894052,0.067527167,0.956159375,0.070289597,240.8320695,33.16772955,0.060957739,0.049666332,14.35104167,1.592911239,0.063200984,0.051494053,0.491690201,0.054575749
2016,SpringWheat,0,3,2016-03-02,62,96,56.32148115,8.338677435,0.654,14.29513889,0.064124557,-3.150966667,0.216939506,-0.44081988,0.038394063,0.248388334,0.023281079,119.042928,17.5598932,0.043469307,0.051643477,10.3875,1.038100122,0.045068978,0.053543957,0.357242242,0.035701874
2016,SpringWheat,0,3,2016-03-03,63,96,85.88467229,13.52247131,1.662,15.09878472,0.062176671,-2.862251042,0.162960715,-0.083912531,0.015878398,0.291297316,0.027272124,180.5120403,28.3776257,0.212449293,0.056668071,16.12083333,1.947369411,0.487367289,0.058753456,0.554580336,0.066992367
2016,SpringWheat,0,3,2016-03-04,64,96,171.0694753,23.2060471,0.1,16.58541667,0.132476287,1.994266042,0.371074644,0.175939063,0.037621894,1.572888542,0.140713411,349.5191023,47.46616139,0.381429278,0.038243068,20.93229167,2.502654071,0.395465876,0.039650413,0.723426069,0.08649245
2016,SpringWheat,0,3,2016-03-05,65,96,185.2447372,24.94350322,0,17.79010417,0.176521094,3.28316875,0.758388108,0.198989618,0.053450839,3.272200878,0.368237792,370.0880568,50.77060912,0.43395599,0.069116085,24.27708333,3.288970963,0.44992557,0.071659557,0.840270196,0.11383675
2016,SpringWheat,0,3,2016-03-06,66,96,178.4356065,24.08418716,0,22.646875,0.314905393,9.780308333,0.827235793,1.166546875,0.160809193,7.513371875,0.741621445,373.2081278,50.56647069,0.617516948,0.049324977,17.40729167,2.185178967,0.640241572,0.051140136,0.606268133,0.076106289
2016,SpringWheat,0,3,2016-03-07,67,96,151.1330983,21.32782747,0,27.15607639,0.194097558,6.50260625,0.472543056,1.917780208,0.190942236,2.6705,0.251107612,316.177044,44.69859099,0.454856677,0.069113737,10.71145833,1.776100394,0.471595403,0.071657123,0.371842326,0.061656339
2016,SpringWheat,0,3,2016-03-08,68,96,80.01020073,14.05813272,0,27.58159722,0.236818361,2.002432292,0.213321605,1.333040625,0.066244126,1.240759375,0.101172748,164.6729292,28.5622016,0.502297012,0.034290089,8.03125,1.088128033,0.520781542,0.035551964,0.277537036,0.037602594
2016,SpringWheat,0,3,2016-03-09,69,96,187.0257245,25.87818985,0,25.35416667,0.245046317,2.361046875,0.709022316,1.128904,0.165780275,3.377446157,0.356861908,385.4194537,53.37166885,0.196910646,0.10461322,15.97291667,1.934173562,0.204156958,0.108462986,0.552318489,0.066880698
2016,SpringWheat,0,3,2016-03-10,70,96,180.6178132,24.318551,0,25.28767361,0.195352502,7.0941375,0.705428305,1.717273125,0.195234673,6.371003125,0.528794871,373.1734716,50.34371142,0.48208724,0.077758861,21.55416667,1.970911778,0.49982805,0.080620387,0.748759716,0.068466546
2016,SpringWheat,0,3,2016-03-11,71,96,165.9528034,22.06027212,0,25.39704861,0.167785716,9.864308333,0.571511127,3.26975,0.233339408,8.239021875,0.557460196,344.9001079,45.96672373,0.774286021,0.05529314,17.85729167,1.773820182,0.802779746,0.057327927,0.621924039,0.061777644
2016,SpringWheat,0,3,2016-03-12,72,96,182.6606397,24.18382617,0,25.00815972,0.152152961,10.88170521,0.689498559,4.01446875,0.285878292,8.891073958,0.586390644,376.6653675,50.01019887,0.516200458,0.079166852,22.29479167,1.946435321,0.535196635,0.082080192,0.777382028,0.067868938
2016,SpringWheat,0,3,2016-03-13,73,96,200.0110568,26.9092225,0,25.19045139,0.13435685,12.16593854,0.552078964,6.244067708,0.239160383,8.276421251,0.700195925,411.0687002,55.37941022,0.966520427,0.073277565,17.57083333,2.049243504,1.002088379,0.07597418,0.613325354,0.071530643
2016,SpringWheat,0,3,2016-03-14,74,96,163.2098941,22.37829265,0,24.74739583,0.121480503,11.20472083,0.629510106,6.083383333,0.25118016,8.179089583,0.568918434,333.7427371,45.82631679,0.655054708,0.069643901,19.86666667,1.823686542,0.679160722,0.072206797,0.69284245,0.063600375
2016,SpringWheat,0,3,2016-03-15,75,96,188.7619337,26.20573057,0,24.42534722,0.094364209,5.5066625,0.351968178,6.008071875,0.146052631,4.461903125,0.314626141,378.3641731,52.6679126,0.419215198,0.055670417,13.47708333,1.355711181,0.434642317,0.057719088,0.467340026,0.047011514
2016,SpringWheat,0,3,2016-03-16,76,96,141.1385846,17.93289038,0,23.67777778,0.08458406,1.283675,0.371532259,3.580004167,0.133767639,2.121526042,0.166541184,281.9842893,35.816701,0.438120531,0.07355649,12.24895833,1.487342056,0.454243367,0.076263369,0.42306726,0.051371367
2016,SpringWheat,0,3,2016-03-17,77,96,83.96930229,12.03280714,0,23.04270833,0.079805751,-3.6571375,0.13852197,1.411760417,0.065743994,1.078279167,0.041013871,171.6716818,24.61008153,0.273759021,0.071169455,17.45520833,1.801580611,0.283833353,0.073788491,0.599943921,0.061921194
2016,SpringWheat,0,3,2016-03-18,78,96,93.30532875,12.23625052,0,22.77378472,0.079851892,-3.881735417,0.072133446,0.657879167,0.019098597,0.327991667,0.013369145,197.580109,26.06636495,0.455220181,0.074425281,10.390625,0.853669939,0.471972283,0.077164131,0.357086345,0.029337396
2016,SpringWheat,0,3,2016-03-19,79,96,119.155532,16.76543446,0,23.41736111,0.114250491,-2.639264583,0.147087787,1.177309375,0.068451932,1.035752083,0.070710234,242.5532931,34.03550432,0.645155219,0.061103159,22.75625,2.907109711,0.668896931,0.063351755,0.782942737,0.100020892
2016,SpringWheat,0,3,2016-03-20,80,96,225.2809994,28.60676594,0,22.27673611,0.174375186,-0.968110417,0.630506931,1.1134625,0.143089059,2.857510417,0.268553047,452.5732261,57.66198022,0.488888708,0.059223016,23.51979167,3.254280117,0.506879813,0.061402423,0.81065212,0.112164645
2016,SpringWheat,0,3,2016-03-21,81,96,186.1233939,26.69879561,0,23.06666667,0.114627384,2.509123958,0.517698366,2.198096875,0.199655721,3.283426042,0.264262186,377.8431503,54.30064668,0.404620896,0.067246007,14.10625,1.587938924,0.419510945,0.06972066,0.487805649,0.054912225
2016,SpringWheat,0,3,2016-03-22,82,96,114.8309114,17.47233806,0,23.21770833,0.097050437,1.287169792,0.365053997,2.527502083,0.151135227,1.622646029,0.160782727,232.1846999,35.23185506,0.340458885,0.091635683,9.442708333,1.023956192,0.352987772,0.095007876,0.326130933,0.035365255
2016,SpringWheat,0,3,2016-03-23,83,96,171.4527994,22.8356166,0,23.09479167,0.092434092,-0.234768021,0.310274065,2.926566667,0.193899086,3.277263542,0.165321497,343.3535005,45.79074908,0.21349025,0.078937042,10.1625,0.913361165,0.221346691,0.081841925,0.350457857,0.031497623
2016,SpringWheat,0,3,2016-03-24,84,96,219.234198,28.91898386,0,22.76579861,0.102022186,3.856732292,0.853868715,3.044480208,0.270230077,5.228715625,0.408198913,444.3281019,58.67350507,0.06210726,0.081495858,14.225,1.234138843,0.064392808,0.084494905,0.492662684,0.042742647
2016,SpringWheat,0,3,2016-03-25,85,96,93.04855344,12.35857728,0,22.87795139,0.080376071,-0.1718125,0.367470578,3.190705208,0.084323444,1.491588542,0.116363955,192.1486511,25.54810929,0.292812448,0.055657238,16.03229167,1.821680768,0.303587946,0.057705424,0.552793241,0.062811533